Location: Unspecified
(0.0000°N, 0.0000°E)
Time: 02:09:59
(UTC+00:00)

Vanguard 1 Rocket - All Passes

Search period start: 26 May 2019 00:00
Search period end: 05 June 2019 00:00
Orbit: 652 x 4224 km, 34.3° (Epoch: 24 May)

Date Brightness Start Highest point End Pass type
(mag) Time Alt. Az. Time Alt. Az. Time Alt. Az.
26 May - 05:13:41 10° N 05:21:24 19° NE 05:32:39 10° E visible
26 May - 07:35:52 10° NW 07:50:30 67° NE 08:15:35 10° ESE daylight
26 May - 10:03:23 10° WNW 10:23:14 57° SW 10:48:54 10° SE daylight
26 May - 12:40:51 10° WSW 13:00:42 27° SSW 13:18:28 10° SSE daylight
26 May - 15:29:02 10° SW 15:40:25 16° S 15:49:00 10° SSE daylight
26 May - 18:04:09 10° SSW 18:14:31 24° SSE 18:20:58 10° ESE visible
26 May - 20:33:35 10° SW 20:42:17 86° NW 20:47:20 10° NE visible
27 May - 06:25:19 10° NNW 06:37:04 44° NE 06:57:41 10° ESE daylight
27 May - 08:50:21 10° WNW 09:07:32 76° SW 09:34:10 10° SE daylight
27 May - 11:22:33 10° W 11:43:09 36° SSW 12:05:06 10° SSE daylight
27 May - 14:07:48 10° SW 14:23:09 19° S 14:35:17 10° SSE daylight
27 May - 16:49:13 10° SSW 17:00:30 20° SSE 17:08:03 10° SE daylight
27 May - 19:19:58 10° SW 19:30:47 51° SSE 19:36:39 10° ENE visible
27 May - 21:51:08 10° W 21:55:54 21° NW 21:59:33 10° N visible
28 May - 05:15:46 10° N 05:24:19 25° NE 05:37:52 10° E visible
28 May - 07:38:36 10° NW 07:52:57 80° NE 08:18:17 10° SE daylight
28 May - 10:07:02 10° W 10:26:15 48° SSW 10:51:07 10° SE daylight
28 May - 12:46:21 10° WSW 13:05:01 23° SSW 13:21:36 10° SSE daylight
28 May - 15:32:14 10° SSW 15:45:03 18° S 15:54:14 10° SE daylight
28 May - 18:05:55 10° SW 18:18:15 34° SSE 18:25:14 10° E visible
28 May - 20:36:33 10° WSW 20:45:11 55° NW 20:50:14 10° NE visible
29 May - 04:09:18 10° NNE 04:11:44 11° NE 04:14:28 10° NE visible
29 May - 06:27:51 10° NW 06:39:31 55° NE 07:01:05 10° ESE daylight
29 May - 08:53:34 10° WNW 09:10:19 64° SW 09:36:22 10° SE daylight
29 May - 11:27:17 10° WSW 11:46:57 31° SSW 12:07:41 10° SSE daylight
29 May - 14:12:42 10° SW 14:27:59 19° S 14:39:50 10° SE daylight
29 May - 16:51:03 10° SSW 17:04:33 26° SSE 17:12:52 10° ESE daylight
29 May - 19:22:18 10° SW 19:33:58 74° SE 19:40:02 10° ENE visible
29 May - 21:55:58 10° WNW 21:58:44 13° NW 22:01:06 10° NNW visible
30 May - 05:18:01 10° NNW 05:27:00 32° NE 05:42:23 10° E visible
30 May - 07:41:32 10° NW 07:55:31 86° SW 08:20:44 10° SE daylight
30 May - 10:11:03 10° W 10:29:36 40° SSW 10:53:22 10° SE daylight
30 May - 12:51:54 10° SW 13:09:41 21° S 13:25:15 10° SSE daylight
30 May - 15:34:49 10° SSW 15:49:29 22° S 15:59:23 10° SE daylight
30 May - 18:07:51 10° SW 18:21:46 46° SSE 18:29:04 10° E visible
30 May - 20:39:54 10° WSW 20:47:56 36° NW 20:52:54 10° NNE visible
31 May - 04:09:46 10° N 04:14:51 15° NE 04:21:40 10° ENE visible
31 May - 06:30:32 10° NW 06:41:59 68° NE 07:04:03 10° ESE daylight
31 May - 08:57:03 10° WNW 09:13:20 53° SSW 09:38:30 10° SE daylight
31 May - 11:32:24 10° WSW 11:51:08 26° SSW 12:10:35 10° SSE daylight
31 May - 14:16:45 10° SW 14:32:48 20° S 14:44:49 10° SE daylight
31 May - 16:52:53 10° SW 17:08:23 33° SSE 17:17:13 10° E daylight
31 May - 19:24:55 10° WSW 19:36:57 78° NW 19:43:08 10° NE visible
01 Jun - 05:20:26 10° NNW 05:29:33 41° NE 05:46:16 10° ESE visible
01 Jun - 07:44:38 10° WNW 07:58:17 71° SW 08:22:58 10° SE daylight
01 Jun - 10:15:27 10° W 10:33:18 34° SSW 10:55:45 10° SE daylight
01 Jun - 12:57:08 10° SW 13:14:36 21° S 13:29:31 10° SE daylight
01 Jun - 15:37:03 10° SW 15:53:41 27° SSE 16:04:15 10° ESE daylight
01 Jun - 18:09:58 10° SW 18:25:04 63° SSE 18:32:35 10° ENE visible
01 Jun - 20:43:45 10° W 20:50:38 24° NW 20:55:14 10° N visible
02 Jun - 04:11:27 10° N 04:17:42 21° NE 04:27:07 10° E visible
02 Jun - 06:33:22 10° NW 06:44:33 83° NE 07:06:42 10° SE daylight
02 Jun - 09:00:50 10° W 09:16:39 44° SSW 09:40:36 10° SE daylight
02 Jun - 11:37:43 10° WSW 11:55:43 24° SSW 12:13:58 10° SE daylight
02 Jun - 14:20:01 10° SW 14:37:26 23° S 14:49:57 10° SE daylight
02 Jun - 16:54:46 10° SW 17:12:00 44° SSE 17:21:10 10° E daylight
02 Jun - 19:27:50 10° WSW 19:39:43 55° NW 19:45:59 10° NE visible
03 Jun - 05:23:00 10° NNW 05:32:03 53° NE 05:49:39 10° ESE visible
03 Jun - 07:47:59 10° WNW 08:01:18 58° SSW 08:25:04 10° SE daylight
03 Jun - 10:20:13 10° WSW 10:37:22 29° SSW 10:58:22 10° SE daylight
03 Jun - 13:01:44 10° SW 13:19:32 21° S 13:34:20 10° SE daylight
03 Jun - 15:39:05 10° SW 15:57:39 33° SSE 16:08:44 10° E daylight
03 Jun - 18:12:17 10° SW 18:28:07 85° SE 18:35:49 10° NE visible
03 Jun - 20:48:20 10° W 20:53:21 16° NW 20:57:07 10° N visible
04 Jun - 04:13:34 10° NNW 04:20:22 28° NE 04:31:41 10° E visible
04 Jun - 06:36:23 10° WNW 06:47:18 81° SW 07:09:05 10° SE daylight
04 Jun - 09:04:58 10° W 09:20:15 36° SSW 09:42:46 10° SE daylight
04 Jun - 11:43:00 10° SW 12:00:34 22° S 12:17:56 10° SE daylight
04 Jun - 14:22:44 10° SW 14:41:48 27° SSE 14:54:54 10° ESE daylight
04 Jun - 16:56:44 10° SW 17:15:23 57° SSE 17:24:49 10° ENE daylight
04 Jun - 19:31:09 10° WSW 19:42:22 39° NW 19:48:38 10° NNE visible
